Regional Weather Roundup
Issued by NWS

Home | Current Version | Previous Version | Graphics & Text | Print | Product List | Glossary Off
Versions: 1 2 3 4 5 6 7 8 9 10 11 12 13 14 15 16 17 18 19 20 21 22 23 24 25 26 27 28 29 30 31 32 33 34 35 36 37 38 39 40 41 42 43 44 45 46 47 48 49 50

000
ASUS43 KMKX 222300
RWRWI

WISCONSIN REGIONAL WEATHER ROUNDUP
NATIONAL WEATHER SERVICE MILWAUKEE/SULLIVAN WI
600 PM CDT MON SEP 22 2014

NOTE: "FAIR" INDICATES FEW OR NO CLOUDS BELOW 12,000 FEET WITH NO
SIGNIFICANT WEATHER AND/OR OBSTRUCTIONS TO VISIBILITY.

WIZ001-002-006>008-014>016-023>028-230000-
NORTHWEST WISCONSIN

CITY           SKY/WX    TMP DP  RH WIND       PRES   REMARKS
SUPERIOR ARPT  SUNNY     71  52  51 W8        30.09F
ASHLAND        CLEAR     68  53  58 SW5       30.11F
HAYWARD        SUNNY     67  50  54 SW7       30.15S
SIREN          SUNNY     69  50  50 W8        30.15S
RICE LAKE      SUNNY     67  49  53 SW6       30.18S
LADYSMITH      CLEAR     67  51  55 SW7       30.18S
EAU CLAIRE     NOT AVBL
MENOMONIE      CLEAR     69  49  47 SW7       30.17F
NEW RICHMOND   SUNNY     69  48  46 SW10      30.17F
OSCEOLA        SUNNY     70  52  53 SW7       30.19S
$$

WIZ003>005-009-010-017-018-230000-
NORTH CENTRAL WISCONSIN

CITY           SKY/WX    TMP DP  RH WIND       PRES   REMARKS
WOODRUFF       CLEAR     64  47  53 W6        30.15S
RHINELANDER    CLEAR     63  47  55 W6        30.16S
EAGLE RIVER    CLEAR     64  45  50 W9        30.14S
LAND O LAKES   CLEAR     64  47  53 W5        30.14S
PHILLIPS       CLEAR     65  49  56 W5        30.15S
TOMAHAWK       CLEAR     64  47  54 W5        30.17S
MEDFORD        CLEAR     63  49  60 W6        30.17F
MERRILL        CLEAR     65  49  55 W9        30.16S
$$

WIZ029-030-035-036-043>047-230000-
CENTRAL WISCONSIN

CITY           SKY/WX    TMP DP  RH WIND       PRES   REMARKS
WAUSAU         CLEAR     64  49  57 W9        30.16S
MOSINEE        CLEAR     63  52  67 W8        30.18F
MARSHFIELD     CLEAR     65  50  58 W8        30.18S
STEVENS POINT  CLEAR     65  49  56 W6        30.18S
WAUPACA        CLEAR     69  50  50 W9        30.17F
WAUTOMA        NOT AVBL
WISC RAPIDS    CLEAR     67  50  54 W10       30.19S
CAMP DOUGLAS   NOT AVBL
$$

WIZ011>013-019>022-031-037>040-048>050-230000-
NORTHEAST WISCONSIN

CITY           SKY/WX    TMP DP  RH WIND       PRES   REMARKS
ANTIGO         CLEAR     63  49  62 W10       30.16S
STURGEON BAY   CLEAR     64  48  55 W8        30.15R
GREEN BAY      CLEAR     66  50  56 W9        30.16S
MANITOWOC      NOT AVBL
APPLETON       CLEAR     64  48  55 W8        30.17F
CLINTONVILLE   CLEAR     66  48  52 W8        30.16S
OSHKOSH        CLEAR     66  49  54 VRB7      30.17F
$$

WIZ032>034-041-042-053>061-230000-
SOUTHWEST WISCONSIN

CITY           SKY/WX    TMP DP  RH WIND       PRES   REMARKS
LA CROSSE      LGT RAIN  71  51  49 CALM      30.18F
SPARTA         CLEAR     68  49  50 W5        30.19F
VIROQUA        FAIR      68  49  50 W5        30.20F
BOSCOBEL       SUNNY     70  49  47 W6        30.20F
PRAIRIE DU CHI SUNNY     70  44  38 W5        30.19F
PLATTEVILLE    FAIR      68  47  47 W9        30.23S
$$

WIZ056-057-062-063-064-067-068-230000-
SOUTH CENTRAL WISCONSIN

CITY           SKY/WX    TMP DP  RH WIND       PRES   REMARKS
BARABOO/DELLS  CLEAR     67  47  47 W8        30.20S
LONE ROCK      NOT AVBL
WATERTOWN      CLEAR     66  48  52 W7        30.20S
MADISON        PTCLDY    68  47  46 VRB3      30.21S
MIDDLETON      FAIR      68  46  45 W8        30.21S
MONROE         CLEAR     66  46  48 W8        30.22S
JANESVILLE     CLEAR     68  45  42 W7        30.21S
$$

WIZ051-052-058>065-066-070>072-230000-
SOUTHEAST WISCONSIN

CITY           SKY/WX    TMP DP  RH WIND       PRES   REMARKS
MILWAUKEE      PTCLDY    67  44  43 W9        30.20S
WAUKESHA       CLEAR     64  46  52 W9        30.21S
MILWAUKEE/TIMM CLEAR     66  43  42 W9        30.21S
RACINE         CLEAR     62  48  60 SE9       30.22S
BURLINGTON     CLEAR     65  44  45 W3        30.21S
KENOSHA        CLEAR     65  48  54 W3        30.21F
FOND DU LAC    CLEAR     66  48  52 W6        30.18F
SHEBOYGAN      CLEAR     65  48  54 W6        30.18F
WEST BEND      CLEAR     64  43  45 W7        30.20S
JUNEAU         PTCLDY    65  49  55 W8        30.21S
$$

LSZ147-162-230000-
LAKE SUPERIOR

STATION/POSITION TIME  TEMP    WIND        PRES    WAVE
                       AIR SEA DIR/SP/G            HT/PER
                 (UTC) (F)     (DEG/KT/KT) (MB)    (FT/S)
W MID LAKE BUOY  2150   53 47  210/ 12/ 14 1018.0F   2/ 5
DEVILS ISLAND    2200   62     230/ 16/ 20 1018.4F
PORT WING        2240   71     220/  7/ 10 1019.0F
SAXON HARBOR     2200   70     210/  6/ 11 1019.6F
$$

LMZ867-665-643>646-230000-
LAKE MICHIGAN

STATION/POSITION TIME  TEMP    WIND        PRES    WAVE
                       AIR SEA DIR/SP/G            HT/PER
                 (UTC) (F)     (DEG/KT/KT) (MB)    (FT/S)
N MID LAKE BUOY  2150   58 57  210/ 14/ 16 1020.4S   2/ 4
NORTHPORT PIER   2200   68     220/  3/  7 1019.6F
KEWAUNEE LAKESHO 2200   67     260/  6/ 12 1020.1F
SHEBOYGAN LAKESH 2200   58 54  170/ 13/ 16 1022.6F
PORT WASHINGTON  2200   61     190/  7/ 11 1022.7
ATWATER BUOY     2200   59     150/ 10/ 12 1023.5F
MILWAUKEE LAKESH 2100   58     140/ 11/ 13   N/A
S MID LAKE BUOY  2150   59 62  200/  8/ 10 1023.8F   2/ 6
KENOSHA   LAKESH 2200   60     180/  8/ 13 1022.7F
$$

TC  - TEMPERATURE IN CELSIUS
VSB - VISIBILITY IN STATUTE MILES
WCI - WIND CHILL INDEX
HX  - HEAT INDEX




USA.gov is the U.S. government's official web portal to all federal, state and local government web resources and services.